Time,TemperatureF,DewpointF,PressureIn,WindDirection,WindDirectionDegrees,WindSpeedMPH,WindSpeedGustMPH,Humidity,HourlyPrecipIn,Conditions,Clouds,dailyrainin,SoftwareType,DateUTC
2013-07-17 00:04:00,75.5,67.8,30.21,East,95,0.0,0.0,77,0.00,,,0.00,Wunderground v.1.15,2013-07-17 05:04:00,
2013-07-17 00:09:00,75.5,67.8,30.21,East,95,0.0,0.0,77,0.00,,,0.00,Wunderground v.1.15,2013-07-17 05:09:00,
2013-07-17 00:14:00,75.5,67.8,30.21,East,95,0.0,0.0,77,0.00,,,0.00,Wunderground v.1.15,2013-07-17 05:14:00,
2013-07-17 00:19:00,75.5,67.8,30.21,East,95,0.0,0.0,77,0.00,,,0.00,Wunderground v.1.15,2013-07-17 05:19:00,
2013-07-17 00:24:00,75.4,67.3,30.21,East,95,0.0,0.0,76,0.00,,,0.00,Wunderground v.1.15,2013-07-17 05:24:00,
2013-07-17 00:29:00,75.4,67.7,30.20,East,95,0.0,0.0,77,0.00,,,0.00,Wunderground v.1.15,2013-07-17 05:29:00,
2013-07-17 00:34:00,75.5,67.0,30.20,East,95,0.0,1.0,75,0.00,,,0.00,Wunderground v.1.15,2013-07-17 05:34:00,
2013-07-17 00:39:00,75.6,67.1,30.20,East,95,0.0,1.0,75,0.00,,,0.00,Wunderground v.1.15,2013-07-17 05:39:00,
2013-07-17 00:44:00,75.6,67.5,30.20,East,95,0.0,0.0,76,0.00,,,0.00,Wunderground v.1.15,2013-07-17 05:44:00,
2013-07-17 00:49:00,75.6,67.5,30.20,East,95,0.0,0.0,76,0.00,,,0.00,Wunderground v.1.15,2013-07-17 05:49:00,
2013-07-17 00:54:00,75.5,67.4,30.20,East,95,0.0,0.0,76,0.00,,,0.00,Wunderground v.1.15,2013-07-17 05:54:00,
2013-07-17 00:59:00,75.4,68.1,30.20,East,95,1.0,1.0,78,0.00,,,0.00,Wunderground v.1.15,2013-07-17 05:59:00,
2013-07-17 01:04:00,75.4,68.8,30.20,NNW,348,1.0,3.0,80,0.00,,,0.00,Wunderground v.1.15,2013-07-17 06:04:00,
2013-07-17 01:09:00,75.3,69.1,30.19,NNW,348,0.0,3.0,81,0.00,,,0.00,Wunderground v.1.15,2013-07-17 06:09:00,
2013-07-17 01:14:00,75.2,69.0,30.19,NNW,348,0.0,1.0,81,0.00,,,0.00,Wunderground v.1.15,2013-07-17 06:14:00,
2013-07-17 01:19:00,75.1,68.9,30.19,NNW,348,0.0,1.0,81,0.00,,,0.00,Wunderground v.1.15,2013-07-17 06:19:00,
2013-07-17 01:24:00,75.1,69.2,30.19,NW,318,3.0,3.0,82,0.00,,,0.00,Wunderground v.1.15,2013-07-17 06:24:00,
2013-07-17 01:29:00,75.1,69.2,30.19,WNW,293,0.0,4.0,82,0.00,,,0.00,Wunderground v.1.15,2013-07-17 06:29:00,
2013-07-17 01:34:00,75.3,69.4,30.19,WNW,300,1.0,3.0,82,0.00,,,0.00,Wunderground v.1.15,2013-07-17 06:34:00,
2013-07-17 01:39:00,75.4,69.5,30.19,WNW,300,1.0,3.0,82,0.00,,,0.00,Wunderground v.1.15,2013-07-17 06:39:00,
2013-07-17 01:44:00,75.3,69.4,30.19,WNW,300,0.0,3.0,82,0.00,,,0.00,Wunderground v.1.15,2013-07-17 06:44:00,
2013-07-17 01:49:00,75.1,69.2,30.19,WNW,300,0.0,3.0,82,0.00,,,0.00,Wunderground v.1.15,2013-07-17 06:49:00,
2013-07-17 01:54:00,74.9,69.4,30.19,WNW,300,1.0,1.0,83,0.00,,,0.00,Wunderground v.1.15,2013-07-17 06:54:00,
2013-07-17 01:59:00,74.8,69.3,30.19,WNW,300,0.0,1.0,83,0.00,,,0.00,Wunderground v.1.15,2013-07-17 06:59:00,
2013-07-17 02:05:00,74.7,69.5,30.19,WNW,300,2.0,2.0,84,0.00,,,0.00,Wunderground v.1.15,2013-07-17 07:05:00,
2013-07-17 02:11:00,74.6,69.4,30.19,WNW,301,4.0,4.0,84,0.00,,,0.00,Wunderground v.1.15,2013-07-17 07:11:00,
2013-07-17 02:16:00,74.4,68.9,30.18,NW,318,3.0,4.0,83,0.00,,,0.00,Wunderground v.1.15,2013-07-17 07:16:00,
2013-07-17 02:21:00,74.4,69.2,30.18,NW,319,3.0,3.0,84,0.00,,,0.00,Wunderground v.1.15,2013-07-17 07:21:00,
2013-07-17 02:27:00,74.4,69.6,30.18,NW,321,3.0,3.0,85,0.00,,,0.00,Wunderground v.1.15,2013-07-17 07:27:00,
2013-07-17 02:33:00,74.3,69.5,30.18,NNW,329,4.0,4.0,85,0.00,,,0.00,Wunderground v.1.15,2013-07-17 07:33:00,
2013-07-17 02:38:00,74.2,69.1,30.18,NNW,343,2.0,5.0,84,0.00,,,0.00,Wunderground v.1.15,2013-07-17 07:38:00,
2013-07-17 02:43:00,74.2,69.1,30.18,NNW,343,3.0,3.0,84,0.00,,,0.00,Wunderground v.1.15,2013-07-17 07:43:00,
2013-07-17 02:49:00,74.0,69.2,30.18,NNW,343,1.0,3.0,85,0.00,,,0.00,Wunderground v.1.15,2013-07-17 07:49:00,
2013-07-17 02:54:00,73.9,69.1,30.18,NNW,343,2.0,2.0,85,0.00,,,0.00,Wunderground v.1.15,2013-07-17 07:54:00,
2013-07-17 03:00:00,73.9,69.4,30.18,NNW,343,4.0,4.0,86,0.00,,,0.00,Wunderground v.1.15,2013-07-17 08:00:00,
2013-07-17 03:05:00,74.0,69.5,30.18,North,355,5.0,5.0,86,0.00,,,0.00,Wunderground v.1.15,2013-07-17 08:05:00,
2013-07-17 03:10:00,74.0,69.5,30.18,North,355,5.0,5.0,86,0.00,,,0.00,Wunderground v.1.15,2013-07-17 08:10:00,
2013-07-17 03:15:00,74.0,69.5,30.18,North,355,3.0,5.0,86,0.00,,,0.00,Wunderground v.1.15,2013-07-17 08:15:00,
2013-07-17 03:21:00,73.9,69.4,30.18,North,355,0.0,4.0,86,0.00,,,0.00,Wunderground v.1.15,2013-07-17 08:21:00,
2013-07-17 03:27:00,73.9,69.4,30.18,North,355,4.0,4.0,86,0.00,,,0.00,Wunderground v.1.15,2013-07-17 08:27:00,
2013-07-17 03:32:00,73.8,69.7,30.18,North,355,4.0,5.0,87,0.00,,,0.00,Wunderground v.1.15,2013-07-17 08:32:00,
2013-07-17 03:38:00,73.7,69.2,30.18,NNW,333,4.0,5.0,86,0.00,,,0.00,Wunderground v.1.15,2013-07-17 08:38:00,
2013-07-17 03:44:00,73.5,69.4,30.18,North,355,0.0,4.0,87,0.00,,,0.00,Wunderground v.1.15,2013-07-17 08:44:00,
2013-07-17 03:50:00,73.5,69.4,30.18,North,355,3.0,3.0,87,0.00,,,0.00,Wunderground v.1.15,2013-07-17 08:50:00,
2013-07-17 03:55:00,73.6,69.5,30.18,North,355,5.0,6.0,87,0.00,,,0.00,Wunderground v.1.15,2013-07-17 08:55:00,
2013-07-17 04:01:00,73.7,69.2,30.18,North,355,4.0,6.0,86,0.00,,,0.00,Wunderground v.1.15,2013-07-17 09:01:00,
2013-07-17 04:06:00,73.7,69.2,30.18,North,350,1.0,6.0,86,0.00,,,0.00,Wunderground v.1.15,2013-07-17 09:06:00,
2013-07-17 04:11:00,73.7,69.2,30.18,North,9,3.0,3.0,86,0.00,,,0.00,Wunderground v.1.15,2013-07-17 09:11:00,
2013-07-17 04:16:00,73.5,68.7,30.18,NNE,26,0.0,6.0,85,0.00,,,0.00,Wunderground v.1.15,2013-07-17 09:16:00,
2013-07-17 04:21:00,73.5,68.0,30.18,North,355,4.0,4.0,83,0.00,,,0.00,Wunderground v.1.15,2013-07-17 09:21:00,
2013-07-17 04:26:00,73.9,68.4,30.19,NE,42,3.0,6.0,83,0.00,,,0.00,Wunderground v.1.15,2013-07-17 09:26:00,
2013-07-17 04:31:00,74.0,68.2,30.19,North,5,1.0,6.0,82,0.00,,,0.00,Wunderground v.1.15,2013-07-17 09:31:00,
2013-07-17 04:36:00,74.2,68.3,30.19,NNE,23,0.0,6.0,82,0.00,,,0.00,Wunderground v.1.15,2013-07-17 09:36:00,
2013-07-17 04:41:00,74.3,68.4,30.19,North,9,1.0,3.0,82,0.00,,,0.00,Wunderground v.1.15,2013-07-17 09:41:00,
2013-07-17 04:46:00,74.3,68.4,30.19,NE,43,0.0,5.0,82,0.00,,,0.00,Wunderground v.1.15,2013-07-17 09:46:00,
2013-07-17 04:51:00,74.2,68.3,30.19,NNE,24,0.0,3.0,82,0.00,,,0.00,Wunderground v.1.15,2013-07-17 09:51:00,
2013-07-17 04:56:00,74.1,68.3,30.19,North,355,0.0,4.0,82,0.00,,,0.00,Wunderground v.1.15,2013-07-17 09:56:00,
2013-07-17 05:01:00,74.0,68.5,30.20,North,355,1.0,1.0,83,0.00,,,0.00,Wunderground v.1.15,2013-07-17 10:01:00,
2013-07-17 05:06:00,73.7,68.2,30.20,NNE,22,0.0,4.0,83,0.00,,,0.00,Wunderground v.1.15,2013-07-17 10:06:00,
2013-07-17 05:11:00,73.6,68.1,30.20,North,355,4.0,4.0,83,0.00,,,0.00,Wunderground v.1.15,2013-07-17 10:11:00,
2013-07-17 05:16:00,73.6,68.1,30.20,North,355,0.0,4.0,83,0.00,,,0.00,Wunderground v.1.15,2013-07-17 10:16:00,
2013-07-17 05:22:00,73.5,68.0,30.20,North,355,1.0,1.0,83,0.00,,,0.00,Wunderground v.1.15,2013-07-17 10:22:00,
2013-07-17 05:27:00,73.5,68.4,30.20,East,87,0.0,3.0,84,0.00,,,0.00,Wunderground v.1.15,2013-07-17 10:27:00,
2013-07-17 05:32:00,73.3,68.2,30.20,NNE,19,0.0,3.0,84,0.00,,,0.00,Wunderground v.1.15,2013-07-17 10:32:00,
2013-07-17 05:37:00,73.3,68.2,30.20,East,88,2.0,4.0,84,0.00,,,0.00,Wunderground v.1.15,2013-07-17 10:37:00,
2013-07-17 05:42:00,73.2,68.1,30.20,ESE,116,0.0,2.0,84,0.00,,,0.00,Wunderground v.1.15,2013-07-17 10:42:00,
2013-07-17 05:47:00,73.1,68.0,30.20,ENE,60,1.0,2.0,84,0.00,,,0.00,Wunderground v.1.15,2013-07-17 10:47:00,
2013-07-17 05:52:00,73.1,68.0,30.20,ESE,117,0.0,2.0,84,0.00,,,0.00,Wunderground v.1.15,2013-07-17 10:52:00,
2013-07-17 05:57:00,73.2,68.1,30.20,East,88,0.0,3.0,84,0.00,,,0.00,Wunderground v.1.15,2013-07-17 10:57:00,
2013-07-17 06:02:00,73.3,68.2,30.21,East,94,0.0,3.0,84,0.00,,,0.00,Wunderground v.1.15,2013-07-17 11:02:00,
2013-07-17 06:07:00,73.3,68.2,30.21,SE,126,2.0,3.0,84,0.00,,,0.00,Wunderground v.1.15,2013-07-17 11:07:00,
2013-07-17 06:12:00,73.3,68.2,30.21,SE,132,2.0,3.0,84,0.00,,,0.00,Wunderground v.1.15,2013-07-17 11:12:00,
2013-07-17 06:17:00,73.2,68.4,30.21,SE,127,1.0,4.0,85,0.00,,,0.00,Wunderground v.1.15,2013-07-17 11:17:00,
2013-07-17 06:22:00,73.2,68.4,30.21,ESE,123,0.0,3.0,85,0.00,,,0.00,Wunderground v.1.15,2013-07-17 11:22:00,
2013-07-17 06:27:00,73.1,68.3,30.21,East,88,0.0,3.0,85,0.00,,,0.00,Wunderground v.1.15,2013-07-17 11:27:00,
2013-07-17 06:32:00,73.3,68.5,30.21,East,79,0.0,2.0,85,0.00,,,0.00,Wunderground v.1.15,2013-07-17 11:32:00,
2013-07-17 06:37:00,73.5,68.4,30.21,NNW,336,2.0,3.0,84,0.00,,,0.00,Wunderground v.1.15,2013-07-17 11:37:00,
2013-07-17 06:42:00,73.7,68.2,30.21,NNE,18,0.0,1.0,83,0.00,,,0.00,Wunderground v.1.15,2013-07-17 11:42:00,
2013-07-17 06:47:00,73.9,68.8,30.21,NNE,33,0.0,3.0,84,0.00,,,0.00,Wunderground v.1.15,2013-07-17 11:47:00,
2013-07-17 06:52:00,73.9,68.8,30.21,ESE,122,0.0,3.0,84,0.00,,,0.00,Wunderground v.1.15,2013-07-17 11:52:00,
2013-07-17 06:57:00,73.9,69.1,30.21,East,93,0.0,3.0,85,0.00,,,0.00,Wunderground v.1.15,2013-07-17 11:57:00,
2013-07-17 07:02:00,73.8,69.0,30.21,SE,135,1.0,3.0,85,0.00,,,0.00,Wunderground v.1.15,2013-07-17 12:02:00,
2013-07-17 07:07:00,73.8,69.3,30.21,ESE,119,3.0,4.0,86,0.00,,,0.00,Wunderground v.1.15,2013-07-17 12:07:00,
2013-07-17 07:12:00,73.8,69.0,30.21,ESE,112,3.0,7.0,85,0.00,,,0.00,Wunderground v.1.15,2013-07-17 12:12:00,
2013-07-17 07:17:00,73.9,69.1,30.21,SE,129,1.0,7.0,85,0.00,,,0.00,Wunderground v.1.15,2013-07-17 12:17:00,
2013-07-17 07:23:00,74.1,69.3,30.21,ESE,113,0.0,2.0,85,0.00,,,0.00,Wunderground v.1.15,2013-07-17 12:23:00,
2013-07-17 07:28:00,74.3,69.1,30.21,ENE,78,0.0,3.0,84,0.00,,,0.00,Wunderground v.1.15,2013-07-17 12:28:00,
2013-07-17 07:33:00,74.5,69.3,30.21,East,80,0.0,4.0,84,0.00,,,0.00,Wunderground v.1.15,2013-07-17 12:33:00,
2013-07-17 07:38:00,74.7,69.5,30.21,East,101,1.0,4.0,84,0.00,,,0.00,Wunderground v.1.15,2013-07-17 12:38:00,
2013-07-17 07:43:00,74.8,69.6,30.21,SE,130,1.0,3.0,84,0.00,,,0.00,Wunderground v.1.15,2013-07-17 12:43:00,
2013-07-17 07:48:00,75.0,69.8,30.21,East,88,0.0,5.0,84,0.00,,,0.00,Wunderground v.1.15,2013-07-17 12:48:00,
2013-07-17 07:53:00,75.3,69.8,30.21,SE,124,2.0,3.0,83,0.00,,,0.00,Wunderground v.1.15,2013-07-17 12:53:00,
2013-07-17 07:58:00,75.5,69.6,30.21,ESE,123,2.0,3.0,82,0.00,,,0.00,Wunderground v.1.15,2013-07-17 12:58:00,
2013-07-17 08:03:00,75.9,70.0,30.22,ENE,77,0.0,2.0,82,0.00,,,0.00,Wunderground v.1.15,2013-07-17 13:03:00,
2013-07-17 08:08:00,76.1,70.2,30.22,SE,130,0.0,3.0,82,0.00,,,0.00,Wunderground v.1.15,2013-07-17 13:08:00,
2013-07-17 08:13:00,76.3,70.4,30.21,ENE,75,0.0,4.0,82,0.00,,,0.00,Wunderground v.1.15,2013-07-17 13:13:00,
2013-07-17 08:19:00,76.5,70.6,30.22,East,92,0.0,4.0,82,0.00,,,0.00,Wunderground v.1.15,2013-07-17 13:19:00,
2013-07-17 08:24:00,76.7,70.8,30.21,ENE,69,0.0,3.0,82,0.00,,,0.00,Wunderground v.1.15,2013-07-17 13:24:00,
2013-07-17 08:29:00,76.9,71.0,30.22,ENE,68,0.0,3.0,82,0.00,,,0.00,Wunderground v.1.15,2013-07-17 13:29:00,
2013-07-17 08:34:00,77.2,70.9,30.21,East,90,0.0,4.0,81,0.00,,,0.00,Wunderground v.1.15,2013-07-17 13:34:00,
2013-07-17 08:39:00,77.3,70.6,30.22,ENE,74,1.0,5.0,80,0.00,,,0.00,Wunderground v.1.15,2013-07-17 13:39:00,
2013-07-17 08:44:00,77.5,71.6,30.21,NNE,13,0.0,5.0,82,0.00,,,0.00,Wunderground v.1.15,2013-07-17 13:44:00,
2013-07-17 08:49:00,77.5,71.6,30.22,NNE,28,0.0,5.0,82,0.00,,,0.00,Wunderground v.1.15,2013-07-17 13:49:00,
2013-07-17 08:54:00,77.5,72.3,30.22,ENE,65,0.0,3.0,84,0.00,,,0.00,Wunderground v.1.15,2013-07-17 13:54:00,
2013-07-17 08:59:00,77.6,72.4,30.21,ESE,107,2.0,3.0,84,0.00,,,0.00,Wunderground v.1.15,2013-07-17 13:59:00,
2013-07-17 09:04:00,77.8,71.9,30.21,NNE,20,1.0,1.0,82,0.00,,,0.00,Wunderground v.1.15,2013-07-17 14:04:00,
2013-07-17 09:09:00,78.0,72.4,30.21,North,5,0.0,2.0,83,0.00,,,0.00,Wunderground v.1.15,2013-07-17 14:09:00,
2013-07-17 09:14:00,78.2,73.0,30.21,ESE,111,1.0,2.0,84,0.00,,,0.00,Wunderground v.1.15,2013-07-17 14:14:00,
2013-07-17 09:20:00,78.2,72.6,30.21,NNW,348,0.0,2.0,83,0.00,,,0.00,Wunderground v.1.15,2013-07-17 14:20:00,
2013-07-17 09:25:00,78.1,72.9,30.21,North,355,0.0,2.0,84,0.00,,,0.00,Wunderground v.1.15,2013-07-17 14:25:00,
2013-07-17 09:30:00,77.7,72.8,30.21,NNW,340,1.0,1.0,85,0.00,,,0.00,Wunderground v.1.15,2013-07-17 14:30:00,
2013-07-17 09:35:00,77.3,72.8,30.21,NNW,331,0.0,3.0,86,0.00,,,0.00,Wunderground v.1.15,2013-07-17 14:35:00,
2013-07-17 09:40:00,77.0,72.5,30.21,NNW,331,0.0,0.0,86,0.00,,,0.00,Wunderground v.1.15,2013-07-17 14:40:00,
2013-07-17 09:45:00,76.9,72.7,30.21,NNW,328,0.0,3.0,87,0.00,,,0.00,Wunderground v.1.15,2013-07-17 14:45:00,
2013-07-17 09:50:00,76.8,73.0,30.21,NNW,327,2.0,2.0,88,0.00,,,0.00,Wunderground v.1.15,2013-07-17 14:50:00,
2013-07-17 09:55:00,76.4,72.6,30.21,NNW,327,1.0,3.0,88,0.00,,,0.00,Wunderground v.1.15,2013-07-17 14:55:00,
2013-07-17 10:00:00,76.3,72.1,30.21,NW,313,0.0,2.0,87,0.00,,,0.00,Wunderground v.1.15,2013-07-17 15:00:00,
2013-07-17 10:05:00,76.4,72.6,30.21,NW,313,0.0,2.0,88,0.00,,,0.00,Wunderground v.1.15,2013-07-17 15:05:00,
2013-07-17 10:10:00,76.7,72.9,30.21,NW,313,0.0,1.0,88,0.00,,,0.00,Wunderground v.1.15,2013-07-17 15:10:00,
2013-07-17 10:15:00,76.9,72.4,30.21,NNW,335,0.0,2.0,86,0.00,,,0.00,Wunderground v.1.15,2013-07-17 15:15:00,
2013-07-17 10:20:00,77.0,71.1,30.21,NNE,25,5.0,5.0,82,0.00,,,0.00,Wunderground v.1.15,2013-07-17 15:20:00,
2013-07-17 10:25:00,77.3,71.7,30.21,NE,38,0.0,5.0,83,0.00,,,0.00,Wunderground v.1.15,2013-07-17 15:25:00,
2013-07-17 10:30:00,77.6,72.4,30.21,NE,38,0.0,1.0,84,0.00,,,0.00,Wunderground v.1.15,2013-07-17 15:30:00,
2013-07-17 10:35:00,77.8,72.2,30.21,NNE,22,0.0,3.0,83,0.00,,,0.00,Wunderground v.1.15,2013-07-17 15:35:00,
2013-07-17 10:40:00,77.8,72.2,30.22,NNE,22,0.0,1.0,83,0.00,,,0.00,Wunderground v.1.15,2013-07-17 15:40:00,
2013-07-17 10:45:00,77.9,72.7,30.22,NNE,22,0.0,1.0,84,0.00,,,0.00,Wunderground v.1.15,2013-07-17 15:45:00,
2013-07-17 10:50:00,78.0,72.4,30.21,NNE,22,1.0,1.0,83,0.00,,,0.00,Wunderground v.1.15,2013-07-17 15:50:00,
2013-07-17 10:55:00,78.0,72.8,30.21,NW,325,4.0,4.0,84,0.00,,,0.00,Wunderground v.1.15,2013-07-17 15:55:00,
2013-07-17 11:00:00,77.9,72.7,30.21,North,355,0.0,2.0,84,0.00,,,0.00,Wunderground v.1.15,2013-07-17 16:00:00,
2013-07-17 11:05:00,77.9,73.0,30.21,NNW,341,1.0,4.0,85,0.00,,,0.00,Wunderground v.1.15,2013-07-17 16:05:00,
2013-07-17 11:10:00,78.3,73.8,30.21,NW,310,1.0,2.0,86,0.00,,,0.00,Wunderground v.1.15,2013-07-17 16:10:00,
2013-07-17 11:15:00,78.7,73.5,30.21,NNW,338,2.0,7.0,84,0.00,,,0.00,Wunderground v.1.15,2013-07-17 16:15:00,
2013-07-17 11:20:00,78.8,73.6,30.21,NNW,331,5.0,6.0,84,0.00,,,0.00,Wunderground v.1.15,2013-07-17 16:20:00,
2013-07-17 11:25:00,79.0,73.4,30.21,NW,325,6.0,7.0,83,0.00,,,0.00,Wunderground v.1.15,2013-07-17 16:25:00,
2013-07-17 11:30:00,79.1,73.8,30.21,WSW,254,2.0,6.0,84,0.00,,,0.00,Wunderground v.1.15,2013-07-17 16:30:00,
2013-07-17 11:35:00,79.4,73.8,30.21,NNW,340,5.0,6.0,83,0.00,,,0.00,Wunderground v.1.15,2013-07-17 16:35:00,
2013-07-17 11:40:00,79.6,74.3,30.20,NW,311,5.0,6.0,84,0.00,,,0.00,Wunderground v.1.15,2013-07-17 16:40:00,
2013-07-17 11:46:00,79.6,73.6,30.20,NW,326,4.0,10.0,82,0.00,,,0.00,Wunderground v.1.15,2013-07-17 16:46:00,
2013-07-17 11:51:00,79.6,73.6,30.20,NNW,329,6.0,6.0,82,0.00,,,0.00,Wunderground v.1.15,2013-07-17 16:51:00,
2013-07-17 11:56:00,79.4,73.1,30.20,NNW,345,5.0,6.0,81,0.00,,,0.00,Wunderground v.1.15,2013-07-17 16:56:00,
2013-07-17 12:01:00,79.1,72.0,30.20,NNW,329,0.0,3.0,79,0.00,,,0.00,Wunderground v.1.15,2013-07-17 17:01:00,
2013-07-17 12:06:00,79.1,72.4,30.20,NE,50,3.0,4.0,80,0.00,,,0.00,Wunderground v.1.15,2013-07-17 17:06:00,
2013-07-17 12:11:00,79.7,73.0,30.20,NNW,346,3.0,6.0,80,0.00,,,0.00,Wunderground v.1.15,2013-07-17 17:11:00,
2013-07-17 12:16:00,80.5,74.1,30.19,NW,321,8.0,8.0,81,0.00,,,0.00,Wunderground v.1.15,2013-07-17 17:16:00,
2013-07-17 12:21:00,81.0,73.9,30.19,NW,323,2.0,5.0,79,0.00,,,0.00,Wunderground v.1.15,2013-07-17 17:21:00,
2013-07-17 12:26:00,81.2,73.7,30.19,NW,323,6.0,10.0,78,0.00,,,0.00,Wunderground v.1.15,2013-07-17 17:26:00,
2013-07-17 12:31:00,81.0,73.5,30.19,WNW,288,2.0,7.0,78,0.00,,,0.00,Wunderground v.1.15,2013-07-17 17:31:00,
2013-07-17 12:36:00,81.0,73.1,30.19,NNW,338,7.0,8.0,77,0.00,,,0.00,Wunderground v.1.15,2013-07-17 17:36:00,
2013-07-17 12:41:00,81.2,73.3,30.19,NNW,339,5.0,8.0,77,0.00,,,0.00,Wunderground v.1.15,2013-07-17 17:41:00,
2013-07-17 12:46:00,81.8,73.5,30.19,NNW,327,5.0,8.0,76,0.00,,,0.00,Wunderground v.1.15,2013-07-17 17:46:00,
2013-07-17 12:51:00,82.1,73.4,30.18,WNW,300,2.0,8.0,75,0.00,,,0.00,Wunderground v.1.15,2013-07-17 17:51:00,
2013-07-17 12:56:00,81.7,73.4,30.18,NW,319,5.0,10.0,76,0.00,,,0.00,Wunderground v.1.15,2013-07-17 17:56:00,
2013-07-17 13:01:00,81.8,73.5,30.18,NNW,329,6.0,6.0,76,0.00,,,0.00,Wunderground v.1.15,2013-07-17 18:01:00,
2013-07-17 13:06:00,81.9,73.6,30.18,NW,325,5.0,8.0,76,0.00,,,0.00,Wunderground v.1.15,2013-07-17 18:06:00,
2013-07-17 13:11:00,82.4,72.9,30.18,NNW,333,7.0,10.0,73,0.00,,,0.00,Wunderground v.1.15,2013-07-17 18:11:00,
2013-07-17 13:16:00,82.2,73.1,30.17,NW,312,4.0,10.0,74,0.00,,,0.00,Wunderground v.1.15,2013-07-17 18:16:00,
2013-07-17 13:21:00,82.2,73.1,30.17,NW,312,6.0,6.0,74,0.00,,,0.00,Wunderground v.1.15,2013-07-17 18:21:00,
2013-07-17 13:26:00,82.3,73.2,30.17,NNW,345,4.0,9.0,74,0.00,,,0.00,Wunderground v.1.15,2013-07-17 18:26:00,
2013-07-17 13:31:00,82.5,71.7,30.17,NNW,338,3.0,5.0,70,0.00,,,0.00,Wunderground v.1.15,2013-07-17 18:31:00,
2013-07-17 13:36:00,82.9,73.4,30.17,NW,313,2.0,7.0,73,0.00,,,0.00,Wunderground v.1.15,2013-07-17 18:36:00,
2013-07-17 13:41:00,82.8,72.8,30.16,NNW,336,7.0,10.0,72,0.00,,,0.00,Wunderground v.1.15,2013-07-17 18:41:00,
2013-07-17 13:46:00,82.5,72.1,30.16,North,349,10.0,11.0,71,0.00,,,0.00,Wunderground v.1.15,2013-07-17 18:46:00,
2013-07-17 13:52:00,81.9,72.0,30.16,NW,324,5.0,7.0,72,0.00,,,0.00,Wunderground v.1.15,2013-07-17 18:52:00,
2013-07-17 13:57:00,81.8,72.3,30.16,NNW,331,6.0,8.0,73,0.00,,,0.00,Wunderground v.1.15,2013-07-17 18:57:00,
2013-07-17 14:02:00,82.3,73.6,30.15,North,351,5.0,9.0,75,0.00,,,0.00,Wunderground v.1.15,2013-07-17 19:02:00,
2013-07-17 14:07:00,82.8,73.3,30.15,NW,309,7.0,9.0,73,0.00,,,0.00,Wunderground v.1.15,2013-07-17 19:07:00,
2013-07-17 14:12:00,83.1,73.5,30.15,NW,313,3.0,7.0,73,0.00,,,0.00,Wunderground v.1.15,2013-07-17 19:12:00,
2013-07-17 14:17:00,83.4,72.6,30.15,WNW,302,5.0,8.0,70,0.00,,,0.00,Wunderground v.1.15,2013-07-17 19:17:00,
2013-07-17 14:22:00,83.6,71.5,30.14,NNW,333,8.0,10.0,67,0.00,,,0.00,Wunderground v.1.15,2013-07-17 19:22:00,
2013-07-17 14:27:00,82.9,70.8,30.15,North,351,5.0,10.0,67,0.00,,,0.00,Wunderground v.1.15,2013-07-17 19:27:00,
2013-07-17 14:32:00,82.6,70.5,30.14,NNW,331,1.0,5.0,67,0.00,,,0.00,Wunderground v.1.15,2013-07-17 19:32:00,
2013-07-17 14:37:00,82.8,72.4,30.14,NNW,347,2.0,5.0,71,0.00,,,0.00,Wunderground v.1.15,2013-07-17 19:37:00,
2013-07-17 14:42:00,83.2,72.8,30.14,NNW,343,5.0,5.0,71,0.00,,,0.00,Wunderground v.1.15,2013-07-17 19:42:00,
2013-07-17 14:47:00,83.4,72.6,30.14,North,9,1.0,5.0,70,0.00,,,0.01,Wunderground v.1.15,2013-07-17 19:47:00,
2013-07-17 14:52:00,82.3,72.4,30.14,SE,146,5.0,5.0,72,1.24,,,0.09,Wunderground v.1.15,2013-07-17 19:52:00,
2013-07-17 14:57:00,80.2,70.8,30.13,SE,144,1.0,7.0,73,0.12,,,0.10,Wunderground v.1.15,2013-07-17 19:57:00,
2013-07-17 15:02:00,78.4,71.7,30.13,SE,126,3.0,5.0,80,0.06,,,0.10,Wunderground v.1.15,2013-07-17 20:02:00,
2013-07-17 15:07:00,77.1,71.9,30.13,ESE,119,8.0,11.0,84,0.04,,,0.10,Wunderground v.1.15,2013-07-17 20:07:00,
2013-07-17 15:12:00,76.5,72.0,30.12,SSE,154,4.0,7.0,86,0.00,,,0.10,Wunderground v.1.15,2013-07-17 20:12:00,
2013-07-17 15:17:00,76.8,71.9,30.13,SE,128,5.0,7.0,85,0.00,,,0.10,Wunderground v.1.15,2013-07-17 20:17:00,
2013-07-17 15:22:00,77.1,72.2,30.13,ESE,109,2.0,5.0,85,0.00,,,0.10,Wunderground v.1.15,2013-07-17 20:22:00,
2013-07-17 15:27:00,77.4,69.6,30.12,ESE,113,2.0,5.0,77,0.00,,,0.10,Wunderground v.1.15,2013-07-17 20:27:00,
2013-07-17 15:32:00,78.0,71.0,30.12,ESE,123,3.0,5.0,79,0.00,,,0.10,Wunderground v.1.15,2013-07-17 20:32:00,
2013-07-17 15:37:00,78.2,70.4,30.12,SE,138,2.0,5.0,77,0.00,,,0.10,Wunderground v.1.15,2013-07-17 20:37:00,
2013-07-17 15:42:00,78.2,71.2,30.12,East,99,2.0,4.0,79,0.00,,,0.10,Wunderground v.1.15,2013-07-17 20:42:00,
2013-07-17 15:47:00,78.3,71.2,30.12,SE,128,2.0,4.0,79,0.00,,,0.10,Wunderground v.1.15,2013-07-17 20:47:00,
2013-07-17 15:52:00,78.9,72.9,30.11,East,100,0.0,3.0,82,0.00,,,0.10,Wunderground v.1.15,2013-07-17 20:52:00,
2013-07-17 15:57:00,79.9,74.6,30.11,East,100,0.0,3.0,84,0.00,,,0.10,Wunderground v.1.15,2013-07-17 20:57:00,
2013-07-17 16:02:00,80.9,74.5,30.10,ESE,113,0.0,3.0,81,0.00,,,0.10,Wunderground v.1.15,2013-07-17 21:02:00,
2013-07-17 16:08:00,81.9,74.7,30.10,East,84,1.0,5.0,79,0.00,,,0.10,Wunderground v.1.15,2013-07-17 21:08:00,
2013-07-17 16:13:00,82.7,74.8,30.10,NNE,32,2.0,3.0,77,0.00,,,0.10,Wunderground v.1.15,2013-07-17 21:13:00,
2013-07-17 16:18:00,83.2,72.0,30.10,East,90,0.0,5.0,69,0.00,,,0.10,Wunderground v.1.15,2013-07-17 21:18:00,
2013-07-17 16:23:00,83.6,73.6,30.09,SE,127,0.0,3.0,72,0.00,,,0.10,Wunderground v.1.15,2013-07-17 21:23:00,
2013-07-17 16:28:00,83.8,74.2,30.10,East,95,1.0,3.0,73,0.00,,,0.10,Wunderground v.1.15,2013-07-17 21:28:00,
2013-07-17 16:33:00,84.1,72.4,30.10,NE,38,0.0,5.0,68,0.00,,,0.10,Wunderground v.1.15,2013-07-17 21:33:00,
2013-07-17 16:38:00,84.3,75.1,30.10,NE,53,0.0,5.0,74,0.00,,,0.10,Wunderground v.1.15,2013-07-17 21:38:00,
2013-07-17 16:43:00,84.1,74.1,30.10,ESE,117,0.0,4.0,72,0.00,,,0.10,Wunderground v.1.15,2013-07-17 21:43:00,
2013-07-17 16:48:00,82.7,73.2,30.10,NNE,21,4.0,11.0,73,0.00,,,0.10,Wunderground v.1.15,2013-07-17 21:48:00,
2013-07-17 16:53:00,79.3,65.1,30.09,SE,138,3.0,10.0,62,0.43,,,0.16,Wunderground v.1.15,2013-07-17 21:53:00,
2013-07-17 16:58:00,77.8,67.2,30.09,ENE,71,0.0,10.0,70,0.09,,,0.16,Wunderground v.1.15,2013-07-17 21:58:00,
2013-07-17 17:03:00,76.9,68.4,30.09,NE,53,1.0,5.0,75,0.05,,,0.16,Wunderground v.1.15,2013-07-17 22:03:00,
2013-07-17 17:08:00,76.6,67.7,30.10,NE,55,0.0,5.0,74,0.04,,,0.16,Wunderground v.1.15,2013-07-17 22:08:00,
2013-07-17 17:13:00,76.4,68.7,30.10,WNW,290,3.0,4.0,77,0.00,,,0.16,Wunderground v.1.15,2013-07-17 22:13:00,
2013-07-17 17:18:00,76.5,69.9,30.10,WNW,298,6.0,6.0,80,0.00,,,0.16,Wunderground v.1.15,2013-07-17 22:18:00,
2013-07-17 17:23:00,77.2,71.3,30.10,NW,306,4.0,6.0,82,0.00,,,0.16,Wunderground v.1.15,2013-07-17 22:23:00,
2013-07-17 17:28:00,77.8,71.9,30.11,NW,325,5.0,6.0,82,0.00,,,0.16,Wunderground v.1.15,2013-07-17 22:28:00,
2013-07-17 17:33:00,78.2,72.3,30.11,NW,325,2.0,5.0,82,0.00,,,0.16,Wunderground v.1.15,2013-07-17 22:33:00,
2013-07-17 17:38:00,78.5,71.8,30.11,NW,325,4.0,5.0,80,0.00,,,0.16,Wunderground v.1.15,2013-07-17 22:38:00,
2013-07-17 17:44:00,78.7,72.0,30.11,NW,321,6.0,6.0,80,0.00,,,0.16,Wunderground v.1.15,2013-07-17 22:44:00,
2013-07-17 17:49:00,78.6,71.9,30.11,NW,319,10.0,14.0,80,0.00,,,0.16,Wunderground v.1.15,2013-07-17 22:49:00,
2013-07-17 17:54:00,77.9,72.0,30.11,NW,311,8.0,12.0,82,0.00,,,0.16,Wunderground v.1.15,2013-07-17 22:54:00,
2013-07-17 17:59:00,77.6,71.3,30.12,WNW,296,5.0,12.0,81,0.00,,,0.16,Wunderground v.1.15,2013-07-17 22:59:00,
2013-07-17 18:04:00,77.3,70.6,30.12,WNW,302,5.0,9.0,80,0.00,,,0.16,Wunderground v.1.15,2013-07-17 23:04:00,
2013-07-17 18:09:00,77.0,70.4,30.12,WNW,286,4.0,9.0,80,0.00,,,0.16,Wunderground v.1.15,2013-07-17 23:09:00,
2013-07-17 18:14:00,77.0,68.9,30.13,West,275,4.0,6.0,76,0.00,,,0.16,Wunderground v.1.15,2013-07-17 23:14:00,
2013-07-17 18:19:00,77.3,68.4,30.13,WNW,291,5.0,6.0,74,0.00,,,0.16,Wunderground v.1.15,2013-07-17 23:19:00,
2013-07-17 18:24:00,78.0,67.4,30.12,WNW,302,6.0,9.0,70,0.00,,,0.16,Wunderground v.1.15,2013-07-17 23:24:00,
2013-07-17 18:29:00,78.1,67.9,30.12,WNW,301,7.0,9.0,71,0.00,,,0.16,Wunderground v.1.15,2013-07-17 23:29:00,
2013-07-17 18:34:00,78.1,67.5,30.12,WNW,290,4.0,8.0,70,0.00,,,0.16,Wunderground v.1.15,2013-07-17 23:34:00,
2013-07-17 18:39:00,78.3,68.1,30.12,West,273,6.0,8.0,71,0.00,,,0.16,Wunderground v.1.15,2013-07-17 23:39:00,
2013-07-17 18:44:00,78.0,67.8,30.12,West,271,8.0,9.0,71,0.00,,,0.16,Wunderground v.1.15,2013-07-17 23:44:00,
2013-07-17 18:49:00,77.0,68.9,30.12,SW,234,8.0,11.0,76,0.00,,,0.16,Wunderground v.1.15,2013-07-17 23:49:00,
2013-07-17 18:54:00,76.5,70.2,30.13,WNW,300,9.0,15.0,81,0.00,,,0.17,Wunderground v.1.15,2013-07-17 23:54:00,
2013-07-17 18:59:00,73.8,69.7,30.14,NW,317,12.0,16.0,87,0.14,,,0.18,Wunderground v.1.15,2013-07-17 23:59:00,
2013-07-17 19:04:00,71.5,66.8,30.15,WNW,303,14.0,25.0,85,0.06,,,0.18,Wunderground v.1.15,2013-07-18 00:04:00,
2013-07-17 19:09:00,70.0,66.6,30.15,WNW,287,10.0,25.0,89,0.04,,,0.19,Wunderground v.1.15,2013-07-18 00:09:00,
2013-07-17 19:10:00,69.8,66.7,30.15,NW,304,10.0,15.0,90,0.04,,,0.19,Wunderground v.1.15,2013-07-18 00:10:00,
2013-07-17 19:17:00,72.1,63.7,30.15,West,275,16.0,30.0,75,0.04,,,0.19,Wunderground v.1.15,2013-07-18 00:17:00,
2013-07-17 19:22:00,73.1,64.3,30.15,WSW,240,15.0,20.0,74,0.04,,,0.19,Wunderground v.1.15,2013-07-18 00:22:00,
2013-07-17 19:27:00,71.5,63.2,30.14,WSW,254,7.0,20.0,75,0.00,,,0.19,Wunderground v.1.15,2013-07-18 00:27:00,
2013-07-17 19:32:00,73.8,64.2,30.14,NW,304,12.0,17.0,72,0.00,,,0.19,Wunderground v.1.15,2013-07-18 00:32:00,
2013-07-17 19:37:00,74.3,63.9,30.14,WNW,298,10.0,17.0,70,0.00,,,0.19,Wunderground v.1.15,2013-07-18 00:37:00,
2013-07-17 19:42:00,75.0,62.0,30.15,WNW,294,9.0,11.0,64,0.00,,,0.19,Wunderground v.1.15,2013-07-18 00:42:00,
2013-07-17 19:47:00,76.0,65.1,30.14,NW,315,9.0,15.0,69,0.00,,,0.19,Wunderground v.1.15,2013-07-18 00:47:00,
2013-07-17 19:52:00,75.6,67.1,30.13,West,263,3.0,9.0,75,0.00,,,0.19,Wunderground v.1.15,2013-07-18 00:52:00,
2013-07-17 19:57:00,75.5,68.5,30.13,North,351,2.0,9.0,79,0.00,,,0.19,Wunderground v.1.15,2013-07-18 00:57:00,
2013-07-17 20:02:00,75.6,68.6,30.13,ENE,63,1.0,4.0,79,0.00,,,0.19,Wunderground v.1.15,2013-07-18 01:02:00,
2013-07-17 20:07:00,75.5,69.3,30.12,ESE,113,3.0,4.0,81,0.00,,,0.19,Wunderground v.1.15,2013-07-18 01:07:00,
2013-07-17 20:12:00,75.2,67.9,30.11,SSE,149,0.0,3.0,78,0.00,,,0.19,Wunderground v.1.15,2013-07-18 01:12:00,
2013-07-17 20:17:00,75.2,68.6,30.11,NNE,15,2.0,4.0,80,0.00,,,0.19,Wunderground v.1.15,2013-07-18 01:17:00,
2013-07-17 20:22:00,75.5,68.9,30.11,WNW,292,3.0,9.0,80,0.00,,,0.19,Wunderground v.1.15,2013-07-18 01:22:00,
2013-07-17 20:27:00,75.6,69.4,30.10,North,355,2.0,9.0,81,0.00,,,0.19,Wunderground v.1.15,2013-07-18 01:27:00,
2013-07-17 20:32:00,75.5,69.3,30.10,East,84,0.0,4.0,81,0.00,,,0.19,Wunderground v.1.15,2013-07-18 01:32:00,
2013-07-17 20:37:00,75.2,69.3,30.10,SE,140,0.0,4.0,82,0.00,,,0.19,Wunderground v.1.15,2013-07-18 01:37:00,
2013-07-17 20:42:00,74.9,69.0,30.10,SE,140,3.0,4.0,82,0.00,,,0.19,Wunderground v.1.15,2013-07-18 01:42:00,
2013-07-17 20:47:00,74.8,69.3,30.11,SE,138,2.0,6.0,83,0.00,,,0.19,Wunderground v.1.15,2013-07-18 01:47:00,
2013-07-17 20:52:00,74.7,69.2,30.11,SE,134,2.0,5.0,83,0.00,,,0.19,Wunderground v.1.15,2013-07-18 01:52:00,
2013-07-17 20:57:00,74.7,69.5,30.12,SE,128,1.0,5.0,84,0.00,,,0.19,Wunderground v.1.15,2013-07-18 01:57:00,
2013-07-17 21:02:00,74.7,69.9,30.12,SE,134,2.0,7.0,85,0.00,,,0.19,Wunderground v.1.15,2013-07-18 02:02:00,
2013-07-17 21:07:00,74.6,69.8,30.12,ESE,117,2.0,7.0,85,0.00,,,0.19,Wunderground v.1.15,2013-07-18 02:07:00,
2013-07-17 21:12:00,74.7,69.9,30.12,SE,143,0.0,4.0,85,0.00,,,0.19,Wunderground v.1.15,2013-07-18 02:12:00,
2013-07-17 21:17:00,74.8,70.0,30.13,SE,132,2.0,4.0,85,0.00,,,0.19,Wunderground v.1.15,2013-07-18 02:17:00,
2013-07-17 21:22:00,74.9,70.1,30.13,NE,52,3.0,7.0,85,0.00,,,0.19,Wunderground v.1.15,2013-07-18 02:22:00,
2013-07-17 21:27:00,75.0,70.2,30.14,SSW,211,2.0,10.0,85,0.00,,,0.19,Wunderground v.1.15,2013-07-18 02:27:00,
2013-07-17 21:32:00,75.1,69.9,30.14,ESE,108,5.0,11.0,84,0.00,,,0.19,Wunderground v.1.15,2013-07-18 02:32:00,
2013-07-17 21:37:00,74.9,70.1,30.14,SE,126,4.0,19.0,85,0.00,,,0.19,Wunderground v.1.15,2013-07-18 02:37:00,
2013-07-17 21:42:00,74.3,69.5,30.14,East,100,1.0,8.0,85,0.00,,,0.19,Wunderground v.1.15,2013-07-18 02:42:00,
2013-07-17 21:47:00,73.7,68.6,30.15,East,80,5.0,11.0,84,0.00,,,0.19,Wunderground v.1.15,2013-07-18 02:47:00,
2013-07-17 21:52:00,73.1,68.7,30.15,East,98,6.0,8.0,86,0.00,,,0.19,Wunderground v.1.15,2013-07-18 02:52:00,
2013-07-17 21:57:00,72.2,68.1,30.14,SSE,152,3.0,8.0,87,0.00,,,0.19,Wunderground v.1.15,2013-07-18 02:57:00,
2013-07-17 22:02:00,71.5,68.1,30.15,East,87,5.0,8.0,89,0.00,,,0.19,Wunderground v.1.15,2013-07-18 03:02:00,
2013-07-17 22:07:00,71.1,68.0,30.15,ESE,117,0.0,8.0,90,0.00,,,0.19,Wunderground v.1.15,2013-07-18 03:07:00,
2013-07-17 22:12:00,70.8,67.7,30.15,ESE,108,1.0,5.0,90,0.00,,,0.19,Wunderground v.1.15,2013-07-18 03:12:00,
2013-07-17 22:17:00,70.5,67.7,30.15,SW,225,1.0,5.0,91,0.00,,,0.19,Wunderground v.1.15,2013-07-18 03:17:00,
2013-07-17 22:22:00,70.2,67.4,30.14,East,92,0.0,5.0,91,0.00,,,0.19,Wunderground v.1.15,2013-07-18 03:22:00,
2013-07-17 22:27:00,70.0,67.6,30.14,East,101,1.0,5.0,92,0.00,,,0.19,Wunderground v.1.15,2013-07-18 03:27:00,
2013-07-17 22:32:00,69.9,67.5,30.14,ESE,113,1.0,3.0,92,0.00,,,0.19,Wunderground v.1.15,2013-07-18 03:32:00,
2013-07-17 22:37:00,69.8,67.4,30.14,ESE,113,2.0,4.0,92,0.00,,,0.19,Wunderground v.1.15,2013-07-18 03:37:00,
2013-07-17 22:43:00,69.9,67.8,30.14,East,93,6.0,6.0,93,0.00,,,0.19,Wunderground v.1.15,2013-07-18 03:43:00,
2013-07-17 22:48:00,70.1,68.0,30.13,East,92,3.0,6.0,93,0.00,,,0.19,Wunderground v.1.15,2013-07-18 03:48:00,
2013-07-17 22:53:00,70.2,68.1,30.13,ESE,123,0.0,3.0,93,0.00,,,0.19,Wunderground v.1.15,2013-07-18 03:53:00,
2013-07-17 22:58:00,70.4,68.0,30.13,ESE,103,0.0,3.0,92,0.00,,,0.19,Wunderground v.1.15,2013-07-18 03:58:00,
2013-07-17 23:01:00,70.4,68.0,30.13,ESE,103,1.0,2.0,92,0.00,,,0.19,Wunderground v.1.15,2013-07-18 04:01:00,
2013-07-17 23:07:00,70.6,68.2,30.14,ENE,77,1.0,3.0,92,0.00,,,0.19,Wunderground v.1.15,2013-07-18 04:07:00,
2013-07-17 23:12:00,70.8,68.4,30.14,East,93,1.0,3.0,92,0.00,,,0.19,Wunderground v.1.15,2013-07-18 04:12:00,
2013-07-17 23:17:00,70.9,68.1,30.14,ESE,107,2.0,4.0,91,0.00,,,0.19,Wunderground v.1.15,2013-07-18 04:17:00,
2013-07-17 23:22:00,71.0,68.2,30.13,East,100,3.0,5.0,91,0.00,,,0.19,Wunderground v.1.15,2013-07-18 04:22:00,
2013-07-17 23:27:00,70.9,68.1,30.13,North,351,3.0,7.0,91,0.00,,,0.19,Wunderground v.1.15,2013-07-18 04:27:00,
2013-07-17 23:32:00,70.8,68.0,30.13,ESE,122,3.0,5.0,91,0.00,,,0.19,Wunderground v.1.15,2013-07-18 04:32:00,
2013-07-17 23:37:00,70.6,68.2,30.13,SSE,149,5.0,7.0,92,0.00,,,0.19,Wunderground v.1.15,2013-07-18 04:37:00,
2013-07-17 23:42:00,70.4,68.0,30.13,ESE,117,5.0,5.0,92,0.00,,,0.19,Wunderground v.1.15,2013-07-18 04:42:00,
2013-07-17 23:47:00,70.2,68.1,30.13,ESE,119,3.0,7.0,93,0.00,,,0.19,Wunderground v.1.15,2013-07-18 04:47:00,
2013-07-17 23:52:00,70.1,67.7,30.12,ESE,106,2.0,7.0,92,0.00,,,0.19,Wunderground v.1.15,2013-07-18 04:52:00,
2013-07-17 23:57:00,69.9,67.5,30.12,SSE,164,1.0,8.0,92,0.00,,,0.19,Wunderground v.1.15,2013-07-18 04:57:00,